{"data":{"norad_id":54133,"intl_designator":"2022-138W","name":"ONEWEB-0515","alt_names":[],"object_type":"PAYLOAD","status":"ACTIVE","operator":null,"country":"UK","launch_date":"2022-10-22","launch_site_code":"SRILR","launch_vehicle":null,"mission":null,"orbit_class":"UNKNOWN","rcs_meters":null,"size_class":null,"mass_kg":null,"dimensions":null,"purposes":["comms"],"wikipedia_slug":null,"has_3d_model":false,"image_url":null,"decayed_at":null,"tle_current":{"epoch":"2026-09-19T23:11:07.382688Z","epoch_age_seconds":71966,"freshness":"FRESH","line1":"1 54133U 22138W   26262.96605767  .00000042  00000+0  71503-4 0  9991","line2":"2 54133  87.9146 255.5265 0001305 107.5152 252.6124 13.20771914191810","mean_motion":13.20771914,"eccentricity":0.0001305,"inclination_deg":87.9146,"raan_deg":255.5265,"arg_perigee_deg":107.5152,"mean_anomaly_deg":252.6124,"bstar":7.1503e-5,"rev_number":19181,"period_min":109.02715182964,"perigee_km":1180.7864188184,"apogee_km":1182.7595553251,"semimajor_km":7559.9099870717,"source":"CELESTRAK","updated_at":"2026-09-20T09:00:44.719289Z"}}}